[[{"header":{"parameterUnit":"m.s-1","parameterCategory":2,"la1":30.2991,"la2":30.254,"lo1":-89.0895,"lo2":-89.0444,"dy":0.0017,"dx":0.0017,"nx":28,"ny":28,"refTime":"2023-08-10T09:00:00:Z","depth":"0","parameterNumber":2,"parameterNumberName":"U-component_of_CURRENTS"},"data":[0,0,0,0,0,0,0,0,0,0,0,0,0,0,0,0,0,0,0,0,0,0,0,0,0,0,0,0,0,0,0,0,0,0,0,0,0,0,0,0,0,0,0,0,0,0,0,0,0,0,0,0,0,0,0,0,0,0,0.6016,0.6017,0,0.6067,0.6067,0.6066,0.6007,0.6006,0.6005,0.6004,0.5998,0.5998,0.5999,0,0,0,0,0,0,0,0,0,0,0,0,0,0.5795,0.5799,0.6016,0.6017,0.6019,0.6067,0.6067,0.6066,0.6008,0.6006,0.6005,0.6003,0.5997,0.5998,0.5999,0,0,0,0,0,0,0,0,0,0,0,0,0,0.5862,0.58,0.6015,0.6004,0.6004,0.6067,0.6067,0.6066,0.6008,0.6006,0.6004,0.6003,0.5997,0.5998,0.6,0.6043,0,0,0.6004,0.6004,0,0,0,0,0,0,0,0,0.5859,0.5869,0.6004,0.6005,0.6005,0.6039,0.5987,0.606,0.6008,0.5994,0.6004,0.6002,0.6015,0.6015,0.6013,0.6043,0.6043,0.6004,0.6005,0.6005,0.6006,0,0,0,0,0,0,0,0.5854,0.5866,0.6024,0.6006,0.6007,0.5973,0.5979,0.6,0.6004,0.5995,0.5994,0.6019,0.6013,0.6011,0.6012,0.6043,0.6004,0.6005,0.6006,0.6006,0.6162,0.6165,0,0,0,0,0,0,0.5878,0.5863,0.6023,0.6027,0.5939,0.5979,0.5986,0.6021,0.6005,0.6005,0.602,0.6016,0.601,0.6011,0.6012,0.6063,0.6005,0.6007,0.6007,0.6158,0.6162,0.6166,0,0,0,0,0,0,0.5873,0.5892,0.6021,0.5954,0.5969,0.5987,0.6024,0.6023,0.6033,0.6027,0.6022,0.6035,0.6009,0.601,0.6048,0.6062,0.6007,0.6008,0.6154,0.616,0.6164,0.6165,0,0,0,0,0,0,0.5866,0.589,0.5921,0.5956,0.5975,0.6094,0.6027,0.6026,0.6056,0.6051,0.6039,0.6035,0.6007,0.6046,0.6049,0.6063,0.601,0.615,0.6157,0.6163,0.6161,0.617,0.6177,0,0,0,0,0,0.5858,0.5929,0.5922,0.5942,0.6018,0.6099,0.6105,0.6101,0.6059,0.6094,0.607,0.6036,0.6088,0.605,0.6053,0.6067,0.6147,0.6155,0.6162,0.6157,0.6168,0.6177,0,0,0,0,0,0,0.5878,0.5932,0.5924,0.6015,0.6065,0.6094,0.6124,0.6119,0.6126,0.6102,0.6073,0.6071,0.6121,0.6113,0.6072,0.614,0.6115,0.6124,0.6111,0.6121,0.6129,0.6113,0.6011,0,0,0,0,0,0.5893,0.5939,0.5997,0.607,0.609,0.6103,0.6131,0.6132,0.6149,0.6148,0.6133,0.613,0.6156,0.6151,0.6182,0.6206,0.6219,0.6227,0.6235,0.6241,0.6238,0.6312,0.6325,0.619,0.619,0.619,0,0,0.5925,0.596,0.5989,0.6073,0.609,0.6118,0.6113,0.6168,0.6174,0.6149,0.6143,0.6172,0.6182,0.6213,0.6233,0.6197,0.6284,0.625,0.6254,0.6248,0.6321,0.6333,0.6344,0.6195,0.6194,0.6194,0,0,0.5988,0.6034,0.607,0.6106,0.6155,0.6159,0.6183,0.6214,0.621,0.624,0.6222,0.6261,0.628,0.6282,0.6287,0.6368,0.6348,0.6386,0.6374,0.6446,0.6456,0.6465,0.6473,0.6483,0.6358,0.6358,0.6358,0,0.6029,0.606,0.6103,0.6134,0.6144,0.6174,0.6191,0.6212,0.6248,0.6245,0.6244,0.6299,0.6309,0.6339,0.6359,0.6379,0.6401,0.632,0.6451,0.6461,0.647,0.6476,0.6487,0.6359,0.6359,0.6359,0.6359,0,0.6082,0.6108,0.6138,0.6153,0.6184,0.622,0.6242,0.6263,0.6254,0.6261,0.6317,0.6352,0.6372,0.6398,0.639,0.6462,0.6449,0.6471,0.6409,0.6483,0.6485,0.6496,0.6361,0.636,0.636,0.636,0,0,0.6156,0.6169,0.6171,0.6139,0.6181,0.6198,0.6223,0.6243,0.623,0.6293,0.6292,0.6369,0.6391,0.6405,0.6426,0.6477,0.6553,0.649,0.6493,0.6465,0.6673,0.6348,0.6328,0.6599,0.6602,0.6604,0.6636,0,0.6167,0.6185,0.6192,0.6175,0.6167,0.6182,0.6187,0.621,0.6233,0.625,0.6318,0.6344,0.6392,0.6399,0.6472,0.6535,0.6588,0.6539,0.6634,0.6636,0.6312,0.6333,0.599,0.5962,0.6647,0.6649,0.665,0,0.6183,0.6177,0.6169,0.6116,0.6113,0.6112,0.6087,0.6105,0.6159,0.6176,0.6245,0.6299,0.6377,0.6423,0.6571,0.6537,0.6612,0.6669,0.6672,0.6372,0.633,0.6011,0.5956,0.5839,0.6667,0.6666,0.6664,0,0.6143,0.6139,0.6106,0.6102,0.6082,0.6063,0.605,0.6082,0.6069,0.6139,0.6137,0.6265,0.6292,0.6449,0.6546,0.6576,0.6695,0.6748,0.6534,0.6511,0.6234,0.6178,0.6042,0.6885,0.6885,0.6885,0.6885,0,0.6128,0.6092,0.6078,0.6057,0.5988,0.6003,0.5945,0.5969,0.5994,0.5963,0.6093,0.6092,0.6309,0.6391,0.6531,0.6506,0.6685,0.6513,0.6495,0.6218,0.6164,0.6059,0.6086,0.6886,0.6886,0.6885,0.6885,0,0.6081,0.6089,0.6032,0.5993,0.5969,0.5922,0.5856,0.5817,0.5863,0.5838,0.5854,0.5962,0.5994,0.6162,0.6356,0.6395,0.6273,0.6441,0.6047,0.5976,0.5573,0.5613,0.5305,0.5192,0.6177,0.6169,0.6162,0,0.6047,0.6022,0.5965,0.5906,0.5879,0.5805,0.5742,0.5756,0.5721,0.5735,0.5713,0.5733,0.5671,0.5761,0.5829,0.5908,0.5929,0.5663,0.5643,0.5452,0.5493,0.54,0.5327,0.5305,0.5292,0.5281,0.5273,0,0.5944,0.5942,0.5894,0.5782,0.5703,0.5596,0.5524,0.5471,0.5477,0.5426,0.5324,0.5268,0.5265,0.51,0.5168,0.5238,0.5328,0.5432,0.5387,0.4881,0.463,0.4541,0.5371,0.5177,0.5186,0.5193,0.5198,0.5202,0.5833,0.5775,0.57,0.5555,0.5489,0.5332,0.513,0.508,0.4934,0.4724,0.4913,0.4644,0.4592,0.4548,0.4583,0.4402,0.4602,0.4333,0.4429,0.4374,0.4128,0.4663,0.4341,0.4346,0.435,0.4353,0.4356,0,0.5571,0.5521,0.5433,0.5226,0.5027,0.5066,0.4896,0.4633,0.4326,0.4285,0.4112,0.3866,0.3668,0.3675,0.361,0.3508,0.3481,0.3442,0.3331,0.3347,0.3941,0.3762,0.311,0.3111,0.3111,0.3111,0.3111,0.3111,0.5419,0.5225,0.5155,0.4746,0.4601,0.4213,0.4028,0.3764,0.364,0.3236,0.3012,0.3016,0.3144,0.3104,0.2967,0.2917,0.288,0.2607,0.2818,0.3337,0.3432,0.3522,0.3356,0.263,0.263,0.202,0.2015,0.2012]},{"header":{"parameterUnit":"m.s-1","parameterCategory":2,"la1":30.2991,"la2":30.254,"lo1":-89.0895,"lo2":-89.0444,"dy":0.0017,"dx":0.0017,"nx":28,"ny":28,"refTime":"2023-08-10T09:00:00:Z","depth":"0","parameterNumber":3,"parameterNumberName":"V-component_of_CURRENTS"},"data":[0,0,0,0,0,0,0,0,0,0,0,0,0,0,0,0,0,0,0,0,0,0,0,0,0,0,0,0,0,0,0,0,0,0,0,0,0,0,0,0,0,0,0,0,0,0,0,0,0,0,0,0,0,0,0,0,0,0,0.0843,0.0843,0,0.0908,0.0909,0.091,0.0903,0.0902,0.09,0.0899,0.092,0.0922,0.0923,0,0,0,0,0,0,0,0,0,0,0,0,0,0.0761,0.0763,0.0843,0.0843,0.0844,0.0908,0.0909,0.091,0.0903,0.0902,0.09,0.0899,0.0919,0.0921,0.0924,0,0,0,0,0,0,0,0,0,0,0,0,0,0.0811,0.0763,0.0843,0.0846,0.0847,0.0908,0.0909,0.091,0.0903,0.0902,0.09,0.0898,0.0919,0.0921,0.0924,0.0977,0,0,0.0932,0.0933,0,0,0,0,0,0,0,0,0.0808,0.0814,0.0845,0.0846,0.0847,0.0893,0.0888,0.093,0.0904,0.0885,0.0899,0.0897,0.0907,0.091,0.0931,0.0978,0.0979,0.0932,0.0933,0.0935,0.0935,0,0,0,0,0,0,0,0.0804,0.0811,0.0871,0.0846,0.0847,0.0862,0.0866,0.0896,0.0906,0.0886,0.0885,0.0889,0.0907,0.0928,0.0931,0.0979,0.0932,0.0934,0.0936,0.0937,0.1095,0.1098,0,0,0,0,0,0,0.0792,0.0808,0.0869,0.0873,0.082,0.0864,0.087,0.0882,0.0907,0.0909,0.0891,0.0889,0.0925,0.0928,0.0931,0.1024,0.0934,0.0937,0.0938,0.1093,0.1096,0.1099,0,0,0,0,0,0,0.079,0.0797,0.0866,0.0839,0.0849,0.0867,0.0882,0.0885,0.0903,0.0911,0.0911,0.0905,0.0923,0.0928,0.0978,0.1023,0.0938,0.094,0.109,0.1094,0.1097,0.1191,0,0,0,0,0,0,0.0787,0.0796,0.081,0.0839,0.085,0.0916,0.0883,0.0887,0.0908,0.0906,0.0924,0.0924,0.0922,0.0975,0.0981,0.1025,0.0942,0.1086,0.1091,0.1096,0.1185,0.1198,0.1209,0,0,0,0,0,0.0784,0.0813,0.081,0.0818,0.0865,0.0918,0.0927,0.0934,0.091,0.0939,0.0952,0.0923,0.101,0.098,0.0986,0.1032,0.1084,0.109,0.1096,0.1179,0.1195,0.1209,0,0,0,0,0,0,0.0775,0.0816,0.0813,0.0849,0.0885,0.0916,0.0938,0.0941,0.0976,0.0965,0.0963,0.0967,0.1029,0.1022,0.0988,0.1094,0.1041,0.1048,0.1102,0.1117,0.1129,0.1148,0.0945,0,0,0,0,0,0.0781,0.082,0.0851,0.0881,0.0896,0.0917,0.0938,0.0946,0.0973,0.0985,0.1003,0.1023,0.1063,0.108,0.1112,0.1172,0.1141,0.1205,0.1217,0.1228,0.1249,0.1275,0.1291,0.1119,0.1119,0.1118,0,0,0.0783,0.0812,0.0831,0.0884,0.0903,0.0956,0.0926,0.0963,0.1014,0.0984,0.1057,0.1069,0.109,0.1161,0.1187,0.1158,0.1249,0.1235,0.1244,0.126,0.1283,0.1299,0.1314,0.1123,0.1122,0.1121,0,0,0.081,0.0831,0.0871,0.0914,0.0955,0.0982,0.0994,0.1036,0.1059,0.1131,0.1124,0.1173,0.1225,0.1262,0.1283,0.1385,0.1316,0.1381,0.1458,0.1483,0.1497,0.1509,0.1433,0.1438,0.1384,0.1385,0.1385,0,0.0802,0.0865,0.0891,0.0945,0.099,0.0997,0.1056,0.1095,0.1154,0.1195,0.1163,0.1281,0.1283,0.1391,0.1417,0.1415,0.1376,0.1396,0.1498,0.151,0.1521,0.144,0.1444,0.139,0.1389,0.1389,0.1388,0,0.0863,0.092,0.0947,0.1026,0.1084,0.1135,0.1191,0.1248,0.1269,0.1308,0.1409,0.1432,0.15,0.1507,0.149,0.1584,0.1509,0.1509,0.1455,0.1543,0.1452,0.1455,0.1397,0.1396,0.1394,0.1393,0,0,0.0826,0.0961,0.0971,0.1037,0.1132,0.1189,0.1287,0.1387,0.1458,0.1509,0.1611,0.1675,0.1673,0.1697,0.1689,0.1706,0.1717,0.1637,0.1635,0.155,0.1693,0.157,0.1559,0.173,0.1733,0.1735,0.1575,0,0.0859,0.0978,0.1046,0.1177,0.1248,0.1321,0.1422,0.1517,0.158,0.168,0.1717,0.1796,0.1749,0.1776,0.1798,0.1755,0.1738,0.1755,0.163,0.1625,0.15,0.1566,0.1487,0.1335,0.1577,0.1577,0.1577,0,0.0907,0.0982,0.1108,0.128,0.1315,0.1398,0.1569,0.1659,0.1792,0.1838,0.1925,0.1941,0.1999,0.1935,0.1906,0.1913,0.1811,0.1754,0.1747,0.1612,0.1512,0.13,0.1329,0.1239,0.158,0.158,0.158,0,0.0898,0.1045,0.1151,0.1206,0.138,0.146,0.1554,0.1703,0.1797,0.193,0.1992,0.2067,0.2082,0.2038,0.1907,0.1909,0.1827,0.1816,0.16,0.1585,0.1486,0.1459,0.1415,0.1784,0.1785,0.1785,0.1786,0,0.0942,0.1031,0.1151,0.1214,0.1359,0.147,0.163,0.1737,0.1879,0.1997,0.2058,0.2135,0.2109,0.2061,0.1945,0.1764,0.1849,0.1621,0.1565,0.1507,0.1486,0.1377,0.1333,0.1779,0.178,0.1782,0.1783,0,0.0953,0.1029,0.116,0.1312,0.1369,0.1475,0.1672,0.1786,0.1894,0.2047,0.2087,0.217,0.2101,0.2013,0.19,0.1776,0.1548,0.1538,0.1416,0.1352,0.1088,0.1051,0.0912,0.0886,0.1299,0.1295,0.1292,0,0.0973,0.1035,0.1204,0.1294,0.137,0.1522,0.1641,0.1788,0.1907,0.2062,0.2137,0.2115,0.2122,0.1889,0.1666,0.1426,0.1376,0.1189,0.1212,0.1071,0.0991,0.0974,0.0965,0.1077,0.1072,0.1069,0.1066,0,0.1006,0.1061,0.1172,0.1334,0.1467,0.1614,0.1777,0.1858,0.2023,0.2116,0.2207,0.221,0.1985,0.1737,0.1402,0.1241,0.1112,0.1103,0.1033,0.0882,0.0789,0.0737,0.1114,0.1033,0.1037,0.1039,0.1041,0.1042,0.1025,0.1111,0.1249,0.1411,0.155,0.169,0.1778,0.192,0.2054,0.2177,0.2209,0.2198,0.1873,0.1415,0.1176,0.0737,0.0823,0.0639,0.0614,0.0615,0.0593,0.0846,0.0671,0.0672,0.0673,0.0674,0.0675,0,0.106,0.1179,0.1324,0.1509,0.1619,0.1694,0.1867,0.192,0.2018,0.2147,0.2194,0.2012,0.1578,0.1196,0.0601,0.0328,0.0294,0.0214,0.0214,0.0241,0.0519,0.0516,0.021,0.021,0.021,0.021,0.021,0.021,0.1106,0.1241,0.1321,0.1514,0.1623,0.1718,0.1781,0.1865,0.1961,0.2017,0.2017,0.2037,0.1809,0.0784,0.015,0.0011,-0.0052,-0.0177,-0.0138,0.0076,0.0117,0.0155,0.0147,-0.0232,-0.0233,-0.0389,-0.0391,-0.0392]}],[{"header":{"parameterUnit":"m.s-1","parameterCategory":2,"la1":30.2991,"la2":30.254,"lo1":-89.0895,"lo2":-89.0444,"dy":0.0017,"dx":0.0017,"nx":28,"ny":28,"refTime":"2023-08-10T09:00:00:Z","depth":"2","parameterNumber":2,"parameterNumberName":"U-component_of_CURRENTS"},"data":[0,0,0,0,0,0,0,0,0,0,0,0,0,0,0,0,0,0,0,0,0,0,0,0,0,0,0,0,0,0,0,0,0,0,0,0,0,0,0,0,0,0,0,0,0,0,0,0,0,0,0,0,0,0,0,0,0,0,0.3686,0.3688,0,0.3885,0.3887,0.389,0.4188,0.4192,0.4197,0.4201,0.4594,0.46,0.4606,0,0,0,0,0,0,0,0,0,0,0,0,0,0.3603,0.3604,0.3686,0.3688,0.3689,0.3884,0.3887,0.3891,0.4187,0.4192,0.4198,0.4203,0.4592,0.4599,0.4607,0,0,0,0,0,0,0,0,0,0,0,0,0,0.371,0.3604,0.3685,0.3856,0.3873,0.3883,0.3888,0.3892,0.4186,0.4193,0.42,0.4206,0.459,0.4599,0.4608,0.4526,0,0,0.4636,0.464,0,0,0,0,0,0,0,0,0.3704,0.3714,0.3829,0.3844,0.3863,0.4013,0.4002,0.4111,0.4184,0.4074,0.4201,0.4209,0.4408,0.4432,0.4462,0.4544,0.4561,0.4637,0.4642,0.4646,0.4649,0,0,0,0,0,0,0,0.3696,0.3707,0.3772,0.383,0.3851,0.3935,0.3959,0.4024,0.4208,0.4084,0.4104,0.4113,0.4421,0.4452,0.4473,0.4567,0.4637,0.4645,0.465,0.4654,0.4893,0.4894,0,0,0,0,0,0,0.3647,0.3699,0.3765,0.3777,0.3791,0.3931,0.3957,0.3963,0.4204,0.4244,0.4107,0.4126,0.4432,0.4462,0.4488,0.4666,0.4646,0.4655,0.466,0.4892,0.4893,0.4894,0,0,0,0,0,0,0.3645,0.3651,0.3757,0.3738,0.3757,0.3924,0.3928,0.3963,0.411,0.4218,0.4266,0.4232,0.4439,0.4476,0.4618,0.4675,0.4659,0.4668,0.4891,0.4892,0.4894,0.4855,0,0,0,0,0,0,0.3641,0.3649,0.3666,0.3734,0.3756,0.3803,0.3922,0.3962,0.4094,0.4125,0.4337,0.4375,0.4447,0.4604,0.4627,0.4687,0.4675,0.489,0.4892,0.4893,0.4855,0.4855,0.4854,0,0,0,0,0,0.3638,0.3641,0.3665,0.3675,0.3764,0.3802,0.3822,0.3969,0.4094,0.4136,0.4291,0.4374,0.4632,0.4611,0.4639,0.4703,0.4889,0.4891,0.4893,0.4856,0.4855,0.4854,0,0,0,0,0,0,0.3669,0.3671,0.3701,0.3722,0.3766,0.3851,0.3903,0.4009,0.4161,0.4232,0.4373,0.4417,0.4569,0.4623,0.4597,0.4773,0.4778,0.4785,0.474,0.474,0.474,0.476,0.4682,0,0,0,0,0,0.3652,0.3635,0.3671,0.3693,0.3708,0.3819,0.3872,0.3968,0.4086,0.417,0.4327,0.4473,0.4569,0.4651,0.4743,0.4824,0.4866,0.4885,0.4885,0.4884,0.4918,0.5014,0.5026,0.49,0.49,0.49,0,0,0.3678,0.367,0.3674,0.3693,0.3745,0.3774,0.3876,0.3962,0.4035,0.4178,0.4373,0.4487,0.4591,0.4696,0.4769,0.4769,0.4926,0.4886,0.4885,0.4921,0.5017,0.503,0.5041,0.4901,0.4901,0.4901,0,0,0.3673,0.37,0.3672,0.3699,0.375,0.3797,0.3839,0.3967,0.4078,0.4233,0.4346,0.4488,0.4684,0.4737,0.4791,0.4834,0.4922,0.489,0.4912,0.5003,0.5014,0.5025,0.5022,0.5033,0.4888,0.4888,0.4888,0,0.3718,0.3683,0.3683,0.3675,0.3726,0.3816,0.3856,0.3926,0.4113,0.4208,0.4314,0.4607,0.4698,0.4782,0.4817,0.4838,0.4891,0.4902,0.5003,0.5015,0.5027,0.5022,0.5035,0.4886,0.4886,0.4886,0.4886,0,0.3662,0.3686,0.3684,0.3684,0.3733,0.3783,0.3856,0.3967,0.4147,0.4254,0.446,0.4579,0.477,0.4797,0.4846,0.4955,0.4959,0.4989,0.5002,0.5038,0.5028,0.5042,0.4884,0.4884,0.4885,0.4885,0,0,0.3678,0.3646,0.3671,0.3699,0.3763,0.381,0.3897,0.4008,0.4129,0.4321,0.4493,0.4651,0.478,0.4844,0.4899,0.4974,0.5071,0.5044,0.5049,0.5034,0.524,0.488,0.4861,0.5152,0.5156,0.516,0.5172,0,0.3668,0.3644,0.3654,0.3732,0.3748,0.3858,0.3939,0.4065,0.4221,0.4392,0.452,0.4708,0.4762,0.4893,0.497,0.5082,0.5124,0.5063,0.5215,0.5218,0.4892,0.4871,0.4546,0.4501,0.5186,0.5188,0.519,0,0.3627,0.3623,0.3657,0.3771,0.3802,0.3893,0.4087,0.4169,0.4343,0.4485,0.4661,0.478,0.4921,0.4975,0.5158,0.5141,0.5205,0.5253,0.5255,0.4958,0.4886,0.4594,0.4502,0.5214,0.5212,0.5211,0.5209,0,0.3612,0.3665,0.3701,0.3735,0.3839,0.3964,0.4084,0.4254,0.4366,0.4565,0.4713,0.4859,0.5028,0.5129,0.5244,0.5257,0.5408,0.5419,0.5114,0.5087,0.4854,0.4797,0.5528,0.5528,0.5527,0.5527,0.5527,0,0.3585,0.3654,0.3727,0.3759,0.3901,0.4008,0.4203,0.4326,0.4521,0.4642,0.4793,0.489,0.5113,0.521,0.5259,0.5201,0.5422,0.5105,0.5074,0.4814,0.4756,0.5436,0.5425,0.5528,0.5528,0.5528,0.5528,0,0.3581,0.3596,0.3666,0.381,0.3885,0.4022,0.4291,0.4431,0.4604,0.4763,0.4848,0.5018,0.5064,0.5149,0.5288,0.5211,0.5184,0.5103,0.4715,0.4632,0.479,0.4778,0.4748,0.4735,0.4725,0.4716,0.4709,0,0.3573,0.3581,0.3706,0.3821,0.3931,0.4136,0.4291,0.4472,0.4599,0.4781,0.4851,0.4946,0.4847,0.4827,0.4743,0.463,0.4886,0.4293,0.4208,0.474,0.4717,0.4721,0.4722,0.389,0.3876,0.3865,0.3856,0,0.36,0.3642,0.3708,0.3875,0.4065,0.4152,0.4382,0.4435,0.4602,0.4624,0.4564,0.4462,0.4425,0.4094,0.4,0.3923,0.4262,0.4047,0.4798,0.4078,0.3916,0.3896,0.3931,0.3758,0.3768,0.3775,0.378,0.3784,0.3691,0.3748,0.3833,0.391,0.4078,0.4076,0.4031,0.4163,0.4091,0.3981,0.4118,0.3816,0.3845,0.3367,0.3249,0.3216,0.3481,0.3415,0.3459,0.3513,0.3352,0.3174,0.2844,0.2848,0.2852,0.2855,0.2858,0,0.3753,0.3782,0.3901,0.3889,0.3847,0.3983,0.3988,0.3809,0.3494,0.3525,0.3305,0.2892,0.2628,0.2694,0.245,0.2396,0.2502,0.234,0.2516,0.261,0.2695,0.2504,0.1766,0.1763,0.176,0.1758,0,0,0.3851,0.3821,0.3716,0.3508,0.3548,0.3362,0.3235,0.2963,0.2874,0.2513,0.2337,0.2445,0.255,0.2122,0.2065,0.1884,0.2251,0.1806,0.2679,0.2979,0.3061,0.3295,0.3099,0,0,0,0,0]},{"header":{"parameterUnit":"m.s-1","parameterCategory":2,"la1":30.2991,"la2":30.254,"lo1":-89.0895,"lo2":-89.0444,"dy":0.0017,"dx":0.0017,"nx":28,"ny":28,"refTime":"2023-08-10T09:00:00:Z","depth":"2","parameterNumber":3,"parameterNumberName":"V-component_of_CURRENTS"},"data":[0,0,0,0,0,0,0,0,0,0,0,0,0,0,0,0,0,0,0,0,0,0,0,0,0,0,0,0,0,0,0,0,0,0,0,0,0,0,0,0,0,0,0,0,0,0,0,0,0,0,0,0,0,0,0,0,0,0,-0.0474,-0.0475,0,-0.048,-0.0479,-0.0478,-0.0375,-0.0374,-0.0372,-0.0371,-0.0253,-0.0251,-0.025,0,0,0,0,0,0,0,0,0,0,0,0,0,-0.0256,-0.026,-0.0474,-0.0476,-0.0477,-0.0481,-0.0479,-0.0478,-0.0376,-0.0374,-0.0372,-0.037,-0.0254,-0.0252,-0.0249,0,0,0,0,0,0,0,0,0,0,0,0,0,-0.0302,-0.0261,-0.0474,-0.0437,-0.0435,-0.0481,-0.0479,-0.0477,-0.0376,-0.0374,-0.0372,-0.037,-0.0254,-0.0252,-0.0249,-0.0276,0,0,-0.0241,-0.024,0,0,0,0,0,0,0,0,-0.0299,-0.0308,-0.0441,-0.044,-0.0438,-0.0438,-0.036,-0.0409,-0.0376,-0.0383,-0.0371,-0.0369,-0.0315,-0.0307,-0.0294,-0.027,-0.0265,-0.0241,-0.0239,-0.0238,-0.0237,0,0,0,0,0,0,0,-0.0296,-0.0307,-0.0461,-0.0443,-0.0441,-0.0381,-0.0385,-0.0367,-0.0347,-0.0382,-0.0378,-0.0403,-0.031,-0.0296,-0.029,-0.0263,-0.0241,-0.0238,-0.0237,-0.0236,-0.0122,-0.0121,0,0,0,0,0,0,-0.0335,-0.0305,-0.0462,-0.0463,-0.0378,-0.0389,-0.0392,-0.0428,-0.035,-0.0341,-0.0405,-0.0399,-0.0302,-0.0293,-0.0285,-0.0176,-0.0238,-0.0235,-0.0234,-0.0123,-0.0122,-0.012,0,0,0,0,0,0,-0.033,-0.0349,-0.0462,-0.0394,-0.0406,-0.0397,-0.0437,-0.043,-0.039,-0.0371,-0.0356,-0.0372,-0.03,-0.0289,-0.0231,-0.0176,-0.0234,-0.0232,-0.0125,-0.0123,-0.0121,-0.0045,0,0,0,0,0,0,-0.0324,-0.0348,-0.0364,-0.0398,-0.0412,-0.0461,-0.044,-0.0432,-0.0418,-0.0408,-0.0339,-0.0327,-0.0298,-0.0235,-0.0229,-0.0173,-0.023,-0.0127,-0.0124,-0.0122,-0.005,-0.0041,-0.0033,0,0,0,0,0,-0.0316,-0.0343,-0.0365,-0.0383,-0.0444,-0.0462,-0.046,-0.0436,-0.0418,-0.0391,-0.0342,-0.0328,-0.0213,-0.0233,-0.0225,-0.0167,-0.0128,-0.0125,-0.0122,-0.0053,-0.0043,-0.0034,0,0,0,0,0,0,-0.0253,-0.0339,-0.0362,-0.0414,-0.0432,-0.045,-0.0439,-0.0431,-0.0374,-0.0358,-0.0318,-0.0302,-0.0224,-0.0222,-0.0244,-0.0129,-0.0166,-0.0162,-0.0117,-0.0107,-0.0099,-0.0055,-0.0227,0,0,0,0,0,-0.0261,-0.0297,-0.0363,-0.0398,-0.0417,-0.0427,-0.0428,-0.0419,-0.0397,-0.0368,-0.0319,-0.0269,-0.0213,-0.0181,-0.0138,-0.0091,-0.0093,-0.0049,-0.004,-0.0034,0.0006,0.0048,0.0064,-0.011,-0.011,-0.011,0,0,-0.025,-0.0301,-0.0323,-0.0386,-0.0401,-0.0388,-0.0415,-0.042,-0.0372,-0.0368,-0.0265,-0.0239,-0.0195,-0.0118,-0.0085,-0.0104,0.0002,-0.003,-0.0024,0.0013,0.0053,0.007,0.0085,-0.0108,-0.0108,-0.0109,0,0,-0.0236,-0.0294,-0.0313,-0.0319,-0.0359,-0.0358,-0.0358,-0.0364,-0.0326,-0.0262,-0.0232,-0.0176,-0.0097,-0.0048,-0.0016,0.0051,0.0044,0.0062,0.0144,0.0183,0.0199,0.0212,0.0178,0.0188,0.0066,0.0066,0.0066,0,-0.0237,-0.025,-0.0312,-0.0311,-0.0295,-0.0337,-0.0306,-0.0286,-0.0252,-0.0207,-0.021,-0.0064,-0.0052,0.0063,0.0092,0.0075,0.0075,0.0105,0.0196,0.021,0.0223,0.0185,0.0195,0.007,0.0069,0.0069,0.0069,0,-0.0205,-0.0211,-0.0216,-0.0221,-0.0205,-0.0191,-0.019,-0.0144,-0.0109,-0.0081,0.0033,0.0058,0.0155,0.0154,0.0151,0.0255,0.0213,0.0201,0.0174,0.0245,0.0199,0.0208,0.0076,0.0074,0.0073,0.0072,0,0,-0.0252,-0.0208,-0.0213,-0.0162,-0.0148,-0.0128,-0.0052,0.0009,0.0095,0.0128,0.0255,0.0314,0.0323,0.0359,0.0352,0.0378,0.0423,0.0337,0.0337,0.0308,0.0473,0.0401,0.0403,0.0438,0.0441,0.0444,0.0385,0,-0.0216,-0.0161,-0.0145,-0.0046,-0.0003,0.0023,0.0119,0.0177,0.0233,0.0342,0.0358,0.0473,0.04,0.0465,0.0477,0.0465,0.0463,0.0438,0.0407,0.0405,0.0339,0.0418,0.0368,0.0311,0.0394,0.0395,0.0396,0,-0.0179,-0.0144,-0.0051,0.0088,0.0109,0.018,0.0338,0.0414,0.0521,0.0577,0.0659,0.0675,0.0738,0.0663,0.0664,0.0659,0.058,0.0535,0.0532,0.0462,0.0355,0.0265,0.0325,0.0411,0.041,0.0409,0.0408,0,-0.0127,-0.0056,0.0039,0.0076,0.0199,0.0282,0.0371,0.0492,0.061,0.0734,0.0843,0.0881,0.0955,0.0885,0.0779,0.0742,0.0755,0.068,0.0525,0.0514,0.0467,0.0449,0.0676,0.0676,0.0676,0.0676,0.0676,0,-0.0054,0.0016,0.0073,0.0136,0.029,0.0354,0.055,0.064,0.0808,0.0978,0.0973,0.1108,0.1029,0.1015,0.086,0.0735,0.0812,0.0571,0.0527,0.0482,0.0467,0.0561,0.0548,0.0674,0.0674,0.0675,0.0675,0,0.0015,0.0045,0.0162,0.0278,0.0328,0.0447,0.0679,0.0838,0.0958,0.1184,0.1248,0.1323,0.1287,0.1148,0.104,0.0867,0.073,0.0651,0.0568,0.0517,0.0421,0.0413,0.0469,0.0466,0.0465,0.0463,0.0462,0,0.0065,0.012,0.0252,0.037,0.0437,0.0609,0.0768,0.0913,0.109,0.1313,0.1445,0.1476,0.1472,0.1253,0.0977,0.0691,0.0706,0.0486,0.0406,0.0465,0.0416,0.041,0.0405,0.0335,0.0333,0.0331,0.033,0,0.0151,0.0185,0.0289,0.0533,0.0699,0.0868,0.1088,0.1219,0.1409,0.1541,0.1698,0.1688,0.1475,0.118,0.0823,0.0622,0.0524,0.0435,0.0586,0.0397,0.0336,0.0288,0.0288,0.0313,0.0315,0.0316,0.0317,0.0318,0.0215,0.0328,0.0503,0.0746,0.0923,0.113,0.1235,0.1427,0.1609,0.1758,0.179,0.1725,0.1473,0.0934,0.0646,0.0352,0.0363,0.0245,0.0253,0.0262,0.026,0.02,0.0146,0.0146,0.0147,0.0147,0.0148,0,0.0361,0.0525,0.0746,0.0999,0.118,0.1249,0.1464,0.1516,0.1631,0.1754,0.1776,0.1477,0.1163,0.0888,0.0394,0.0115,0.0096,0.0059,0.0096,0.0112,0.0127,0.012,-0.0033,-0.0033,-0.0034,-0.0034,0,0,0.0469,0.0723,0.086,0.1185,0.1327,0.1456,0.1518,0.1559,0.1626,0.1632,0.1589,0.1541,0.122,0.0854,0.049,0.0227,0.0233,0.0168,0.0328,0.0426,0.0444,0.0235,0.0242,0,0,0,0,0]}],[{"header":{"parameterUnit":"m.s-1","parameterCategory":2,"la1":30.2991,"la2":30.254,"lo1":-89.0895,"lo2":-89.0444,"dy":0.0017,"dx":0.0017,"nx":28,"ny":28,"refTime":"2023-08-10T09:00:00:Z","depth":"4","parameterNumber":2,"parameterNumberName":"U-component_of_CURRENTS"},"data":[0,0,0,0,0,0,0,0,0,0,0,0,0,0,0,0,0,0,0,0,0,0,0,0,0,0,0,0,0,0,0,0,0,0,0,0,0,0,0,0,0,0,0,0,0,0,0,0,0,0,0,0,0,0,0,0,0,0,0.0323,0.0323,0,0.0372,0.0374,0.0375,0.0554,0.0557,0.0559,0.0562,0.0745,0.0747,0.075,0,0,0,0,0,0,0,0,0,0,0,0,0,0.0395,0.0394,0.0323,0.0323,0.0322,0.0372,0.0374,0.0376,0.0553,0.0557,0.056,0.0563,0.0744,0.0747,0.075,0,0,0,0,0,0,0,0,0,0,0,0,0,0.041,0.0394,0.0324,0.0405,0.0412,0.0371,0.0374,0.0376,0.0553,0.0557,0.0561,0.0564,0.0743,0.0747,0.075,0.0693,0,0,0.0761,0.0763,0,0,0,0,0,0,0,0,0.0409,0.041,0.0394,0.0399,0.0407,0.0447,0.0465,0.0484,0.0552,0.0515,0.0562,0.0566,0.0645,0.0657,0.0677,0.0702,0.0709,0.0762,0.0764,0.0766,0.0767,0,0,0,0,0,0,0,0.0408,0.0408,0.0358,0.0392,0.04,0.0441,0.045,0.047,0.0572,0.0519,0.0528,0.0508,0.0652,0.0673,0.0683,0.0712,0.0762,0.0765,0.0767,0.0769,0.1056,0.1062,0,0,0,0,0,0,0.0366,0.0407,0.0357,0.0358,0.04,0.0436,0.0446,0.0443,0.0569,0.0586,0.0504,0.0515,0.0665,0.0678,0.069,0.0989,0.0765,0.0769,0.0771,0.1051,0.1058,0.1064,0,0,0,0,0,0,0.0367,0.0361,0.0354,0.0371,0.0371,0.0429,0.0425,0.0441,0.0531,0.0553,0.0578,0.0583,0.0669,0.0685,0.0836,0.0984,0.077,0.0774,0.1045,0.1053,0.1061,0.1355,0,0,0,0,0,0,0.037,0.0362,0.0383,0.0368,0.0368,0.0382,0.042,0.0439,0.05,0.0518,0.0626,0.0644,0.0673,0.0831,0.0839,0.0985,0.0777,0.1038,0.1048,0.1058,0.1339,0.1373,0.1402,0,0,0,0,0,0.0372,0.0381,0.0384,0.0379,0.0382,0.0381,0.039,0.0452,0.05,0.055,0.0673,0.0645,0.0902,0.0838,0.0847,0.0997,0.1033,0.1045,0.1057,0.1325,0.1366,0.1401,0,0,0,0,0,0,0.0415,0.0397,0.0402,0.0404,0.0408,0.0408,0.0441,0.0477,0.0605,0.0659,0.0705,0.0733,0.0934,0.0898,0.0826,0.1108,0.0964,0.0979,0.1164,0.1203,0.1234,0.1202,0.078,0,0,0,0,0,0.0421,0.0432,0.0413,0.0411,0.0417,0.0438,0.0457,0.0505,0.0578,0.0641,0.0743,0.085,0.0971,0.1036,0.1121,0.1242,0.1103,0.1344,0.1375,0.1402,0.1383,0.1331,0.1354,0.1104,0.1104,0.1104,0,0,0.0421,0.0415,0.0417,0.0421,0.043,0.0473,0.0469,0.0516,0.0612,0.0635,0.0857,0.0967,0.1029,0.1228,0.1308,0.1228,0.1395,0.1418,0.1442,0.1405,0.1346,0.1369,0.139,0.1112,0.1111,0.111,0,0,0.0427,0.0434,0.0459,0.0485,0.051,0.0525,0.055,0.0624,0.0732,0.0916,0.0998,0.1191,0.1349,0.1455,0.1513,0.1738,0.1572,0.1784,0.1916,0.1871,0.1889,0.1903,0.1718,0.1714,0.1791,0.1791,0.1792,0,0.0437,0.047,0.0464,0.0513,0.0547,0.0559,0.0624,0.0709,0.0857,0.0975,0.1033,0.137,0.1459,0.1665,0.1809,0.1814,0.1698,0.1779,0.1908,0.192,0.1929,0.1736,0.1727,0.1807,0.1805,0.1803,0.1802,0,0.0481,0.0528,0.0543,0.0614,0.0655,0.0707,0.079,0.0931,0.1076,0.1184,0.1474,0.1624,0.181,0.1912,0.196,0.2118,0.198,0.196,0.1803,0.1972,0.1757,0.1743,0.1829,0.1824,0.1819,0.1815,0,0,0.0445,0.0556,0.0569,0.0656,0.0733,0.0785,0.0944,0.1101,0.1253,0.1475,0.1673,0.1987,0.2076,0.2142,0.2224,0.2241,0.2266,0.2168,0.2158,0.1964,0.2054,0.2004,0.1979,0.2276,0.2276,0.2277,0.1859,0,0.0489,0.0609,0.0656,0.0807,0.0882,0.0978,0.1126,0.1293,0.1457,0.1662,0.1842,0.2066,0.2145,0.2289,0.2328,0.2309,0.2249,0.2372,0.1933,0.1916,0.184,0.1972,0.2279,0.1847,0.1843,0.1841,0.1839,0,0.0527,0.0616,0.0754,0.0962,0.1009,0.1136,0.1383,0.1526,0.1754,0.1889,0.2089,0.2186,0.2345,0.2352,0.2298,0.2374,0.2234,0.2159,0.214,0.1973,0.1844,0.1653,0.181,0.1812,0.1814,0.1816,0.1818,0,0.0519,0.0701,0.0827,0.0891,0.1102,0.1268,0.143,0.1654,0.1776,0.2029,0.2092,0.2275,0.233,0.2272,0.2139,0.2242,0.1919,0.2014,0.1772,0.1757,0.1783,0.1772,0.1866,0.1867,0.1868,0.1869,0.187,0,0.0538,0.066,0.088,0.096,0.1194,0.1359,0.1603,0.1784,0.1966,0.2058,0.2219,0.2223,0.2319,0.2153,0.2066,0.1827,0.1821,0.1784,0.1686,0.1911,0.192,0.1767,0.1761,0.1853,0.1857,0.186,0.1862,0,0.0506,0.0613,0.0794,0.1074,0.1185,0.1386,0.167,0.1799,0.1981,0.2064,0.2129,0.2162,0.2056,0.1948,0.177,0.1683,0.1489,0.1339,0.1434,0.1346,0.1375,0.1389,0.1177,0.1172,0.1169,0.1166,0.1163,0,0.0498,0.0584,0.0858,0.095,0.1105,0.1391,0.1529,0.18,0.1883,0.1966,0.195,0.1902,0.19,0.1516,0.1485,0.1242,0.1223,0.1028,0.1435,0.1398,0.1322,0.1343,0.1362,0.1157,0.1156,0.1155,0.1154,0,0.0504,0.0599,0.0721,0.0879,0.1061,0.1252,0.1501,0.153,0.1746,0.1866,0.1802,0.1748,0.1562,0.1495,0.123,0.1073,0.119,0.0993,0.1008,0.1389,0.1371,0.1304,0.1327,0.1141,0.1143,0.1144,0.1145,0,0.0496,0.0543,0.0647,0.0865,0.0997,0.1111,0.1246,0.1368,0.1487,0.1642,0.1566,0.1504,0.1541,0.1377,0.1123,0.1017,0.1138,0.1123,0.1134,0.1147,0.1352,0.1338,0.1008,0,0,0,0,0,0.049,0.0542,0.0636,0.0802,0.0913,0.1042,0.1202,0.13,0.1471,0.1425,0.155,0.142,0.1282,0.1208,0.1113,0.1093,0.1069,0.097,0.1043,0.107,0.1085,0.1341,0,0,0,0,0,0,0.0444,0.0493,0.06,0.0755,0.0853,0.0956,0.106,0.1141,0.1172,0.1326,0.1259,0.1396,0.1254,0.1371,0.1122,0.1099,0.1122,0.0975,0.0972,0.1062,0.1075,0.1087,0.1355,0,0,0,0,0]},{"header":{"parameterUnit":"m.s-1","parameterCategory":2,"la1":30.2991,"la2":30.254,"lo1":-89.0895,"lo2":-89.0444,"dy":0.0017,"dx":0.0017,"nx":28,"ny":28,"refTime":"2023-08-10T09:00:00:Z","depth":"4","parameterNumber":3,"parameterNumberName":"V-component_of_CURRENTS"},"data":[0,0,0,0,0,0,0,0,0,0,0,0,0,0,0,0,0,0,0,0,0,0,0,0,0,0,0,0,0,0,0,0,0,0,0,0,0,0,0,0,0,0,0,0,0,0,0,0,0,0,0,0,0,0,0,0,0,0,0.0476,0.0475,0,0.0455,0.0455,0.0456,0.0529,0.053,0.0532,0.0533,0.0258,0.025,0.0241,0,0,0,0,0,0,0,0,0,0,0,0,0,0.0481,0.0482,0.0476,0.0475,0.0473,0.0455,0.0455,0.0456,0.0529,0.053,0.0532,0.0533,0.0261,0.0251,0.0241,0,0,0,0,0,0,0,0,0,0,0,0,0,0.0482,0.0483,0.0476,0.05,0.0501,0.0454,0.0455,0.0456,0.0529,0.053,0.0532,0.0534,0.0264,0.0252,0.0239,0.0123,0,0,0.02,0.0195,0,0,0,0,0,0,0,0,0.0482,0.0483,0.0498,0.0498,0.0499,0.0487,0.0356,0.0329,0.0528,0.0529,0.0533,0.0535,0.0303,0.0287,0.0298,0.0111,0.0099,0.0199,0.0192,0.0186,0.0183,0,0,0,0,0,0,0,0.0482,0.0483,0.0478,0.0496,0.0497,0.0477,0.0481,0.0353,0.0409,0.0529,0.0532,0.0512,0.0303,0.031,0.0291,0.0095,0.02,0.0188,0.0181,0.0176,-0.0174,-0.0175,0,0,0,0,0,0,0.0467,0.0484,0.0479,0.0476,0.0483,0.0475,0.048,0.0498,0.0416,0.0405,0.0511,0.0515,0.0331,0.0306,0.0281,0.0215,0.0186,0.0174,0.0167,-0.0172,-0.0174,-0.0176,0,0,0,0,0,0,0.0467,0.0468,0.0479,0.0469,0.0468,0.0473,0.0492,0.0496,0.0537,0.0403,0.0389,0.055,0.0331,0.0298,0.0195,0.0201,0.0169,0.0157,-0.017,-0.0173,-0.0175,0.0031,0,0,0,0,0,0,0.0469,0.0469,0.0503,0.0469,0.0467,0.046,0.0489,0.0494,0.0514,0.0522,0.0429,0.0405,0.033,0.0215,0.0183,0.0183,0.0147,-0.0168,-0.0171,-0.0174,0.0027,0.0036,0.0045,0,0,0,0,0,0.0469,0.0493,0.0506,0.0505,0.0507,0.0458,0.0457,0.0472,0.0515,0.0522,0.0472,0.041,0.0172,0.0204,0.0166,0.0163,-0.0167,-0.017,-0.0174,0.0023,0.0034,0.0044,0,0,0,0,0,0,0.0502,0.05,0.0514,0.0537,0.0503,0.0467,0.0474,0.0489,0.0466,0.0487,0.0388,0.0358,0.0263,0.0168,0.0206,0.0045,-0.001,-0.0021,0.0152,0.0162,0.0171,0.021,0.0137,0,0,0,0,0,0.0523,0.0551,0.0519,0.0531,0.0521,0.0509,0.0504,0.0517,0.0474,0.0476,0.0409,0.0317,0.021,0.0159,0.0042,-0.0047,-0.0159,-0.0081,-0.0071,-0.0062,-0.0061,-0.026,-0.0268,-0.0188,-0.0188,-0.0188,0,0,0.0535,0.0534,0.0552,0.0541,0.0525,0.0503,0.0515,0.0514,0.0508,0.0432,0.0411,0.0335,0.0187,0.0105,0.0053,0.0037,-0.0134,-0.0067,-0.0057,-0.0062,-0.0265,-0.0272,-0.0279,-0.0191,-0.019,-0.019,0,0,0.0541,0.0572,0.0593,0.0572,0.0553,0.0527,0.0532,0.0516,0.0531,0.0499,0.0432,0.0362,0.023,0.0127,0.0055,0.0021,-0.0089,-0.0004,0.0089,-0.0103,-0.011,-0.0118,-0.0203,-0.0221,0.0015,0.0015,0.0015,0,0.0566,0.0582,0.0581,0.0578,0.0561,0.0539,0.0534,0.0521,0.0482,0.0477,0.0511,0.0326,0.0231,0.0083,0.0126,0.0043,-0.0038,0.0081,-0.0086,-0.0097,-0.0109,-0.0196,-0.0218,0.0024,0.0023,0.0022,0.0021,0,0.0568,0.059,0.0585,0.0582,0.0563,0.0549,0.0515,0.0531,0.0562,0.0536,0.0459,0.0353,0.0256,0.0215,0.0192,0.0059,0.0043,-0.0053,-0.0092,-0.0103,-0.0195,-0.0221,0.0038,0.0035,0.0032,0.0029,0,0,0.06,0.0599,0.0599,0.0628,0.0576,0.0577,0.0554,0.052,0.0537,0.0505,0.0476,0.0368,0.0359,0.0275,0.0198,0.0078,-0.001,0.0042,0.0028,-0.0001,-0.0342,-0.0159,-0.0171,-0.0116,-0.0121,-0.0125,-0.0345,0,0.0603,0.0621,0.0603,0.0619,0.0628,0.0613,0.0611,0.0592,0.056,0.052,0.0412,0.0359,0.0353,0.0368,0.0232,0.001,-0.008,0.0064,-0.0365,-0.0376,-0.0181,-0.0198,-0.0141,-0.0366,-0.0372,-0.0377,-0.038,0,0.0601,0.0627,0.0646,0.0705,0.0713,0.0762,0.0778,0.0778,0.0682,0.0664,0.0566,0.0455,0.0297,0.0302,-0.0061,0.0046,-0.009,-0.025,-0.0266,-0.0191,-0.0244,-0.0382,-0.043,-0.0426,-0.0422,-0.0419,-0.0416,0,0.0622,0.0661,0.0693,0.0699,0.0742,0.0845,0.0928,0.0884,0.0884,0.0788,0.0718,0.0494,0.0395,0.0137,-0.0087,-0.0085,-0.049,-0.0579,-0.0553,-0.0541,-0.073,-0.072,-0.0822,-0.0821,-0.0821,-0.082,-0.082,0,0.0608,0.0655,0.0777,0.0805,0.0968,0.1004,0.1135,0.1162,0.1115,0.1028,0.0856,0.0673,0.0354,0.0084,-0.0119,-0.0373,-0.0525,-0.0527,-0.06,-0.0628,-0.0606,-0.0744,-0.0732,-0.0829,-0.0827,-0.0825,-0.0824,0,0.0607,0.0635,0.0725,0.0878,0.0985,0.115,0.1364,0.1378,0.1359,0.1214,0.119,0.0808,0.0469,0.0172,-0.0266,-0.0386,-0.0663,-0.0697,-0.0609,-0.0677,-0.0583,-0.0558,-0.0761,-0.0757,-0.0753,-0.075,-0.0747,0,0.0585,0.063,0.0828,0.0931,0.1055,0.1315,0.1433,0.1539,0.1495,0.1236,0.1097,0.0792,0.0519,0.0035,-0.0249,-0.0576,-0.0598,-0.069,-0.0698,-0.0532,-0.0585,-0.0566,-0.0548,-0.0742,-0.0741,-0.074,-0.0739,0,0.0582,0.0664,0.0744,0.0948,0.114,0.1298,0.1504,0.1484,0.1443,0.1395,0.1033,0.0766,0.0383,0.0027,-0.0125,-0.0402,-0.0626,-0.0654,-0.0666,-0.0675,-0.0512,-0.0563,-0.0549,-0.0726,-0.0728,-0.0729,-0.073,0,0.0604,0.0646,0.0743,0.0967,0.1126,0.1203,0.1343,0.1325,0.1334,0.1107,0.0976,0.0581,0.04,0.0112,-0.0112,-0.025,-0.0338,-0.0393,-0.0421,-0.0438,-0.0238,0.0024,-0.0086,0,0,0,0,0,0.0625,0.0655,0.0762,0.0921,0.1052,0.1168,0.1274,0.1338,0.1311,0.1093,0.1082,0.075,0.0389,0.0164,0.005,-0.0093,-0.038,-0.023,-0.0462,-0.0656,-0.067,-0.0469,0,0,0,0,0,0,0.0602,0.0679,0.0713,0.0845,0.0936,0.1042,0.1099,0.1085,0.1014,0.0969,0.0781,0.077,0.0419,0.0474,0.0055,0.0001,-0.015,-0.0366,-0.0367,-0.0647,-0.0661,-0.0672,-0.0471,0,0,0,0,0]}]]